Find Starlink 30940

NORAD ID: 58409 Int'l Des: 2023-180 Owner: SPXS Country: US Constellation: starlink operational
LEOCIRCULAR

实时位置

正在加载3D地球...

关于 Starlink 30940

正在加载描述...

即将过境

Passes for default location (London). Set your location on the main map for personalized predictions.

高度历史

Loading altitude history...

两行轨道根数

1 58409U 23180H 26130.10117624 -.00001223 00000-0 -34957-4 0 9996
2 58409 43.0001 280.6446 0001151 281.8781 78.1941 15.27563393138724
Epoch: May 10, 2026 • Age: 9 hours

当前状态

高度 492.6 km
速度 7.62 km/s
星下点 -35.14°S, 109.31°E
发射日期 Nov 22, 2023
运行时间 2.4 years
类型 internet

技术详情

分类 Payload
质量 730.00 kg
干质量 700.00 kg
总质量 730.00 kg
长度 0.30 m
直径 4.10 m
跨度 29.00 m
形状 Box + pan
制造商 SPXS
平台类型 Starlink V2M
阶段状态 In Orbit
所有者/国家 SPXS/US

Most Searched